HULIANGWANG DIGUI-01

Last updated on Thu Jan 16 2025 00:02:04 GMT+0000 (Coordinated Universal Time)

1 62323U 24240A 25015.57224588 .00000070 00000+0 10509-3 0 9996 2 62323 86.5034 158.4279 0012284 214.1131 145.9223 13.37560160 4035
UTC large
Height (km)
Speed (km/s)
/
Latitude / Longitude
Inclination (degrees)
Orbital Period (minutes)
Azimuth
Elevation
Range (km)
Doppler Factor

Next 0 passes for location: London (51.5072 / 0.1276)

Sorry there are no passes over London.